1998-067LM

Last updated on Thu May 25 2017 00:15:03 GMT+0000 (Coordinated Universal Time)

1 42704U 98067LM 17144.51866927 .00011242 00000-0 17188-3 0 9996 2 42704 51.6420 156.2413 0002289 167.9449 327.7637 15.54911952 1176
UTC large
Height (km)
Speed (km/s)
/
Latitude / Longitude
Inclination (degrees)
Orbital Period (minutes)
Azimuth
Elevation
Range (km)
Doppler Factor

Next 0 passes for location: London (51.5072 / 0.1276)

Sorry there are no passes over London.